• In Spain
  • List of Countries
  • For 7 days
  • Water Temperature
  • Satellite Maps
  • Weather Map
  • Weather Widgets
  • user-avatar
    Login

    Hourly Weather Saurimo

    Today, 20 October, Saturday

    Time Temperature Precipitation Wind Pressure Humidity
    00:00 +23°C° 0 mm 1 mps 669 mmHg 72%
    01:00 +22°C° 0 mm 1 mps 669 mmHg 75%
    02:00 +22°C° 0 mm 1 mps 669 mmHg 76%
    03:00 +21°C° 0 mm 1 mps 669 mmHg 78%
    04:00 +19°C° 0 mm 0 mps 669 mmHg 80%
    05:00 +22°C° 0.4 mm 1 mps 669 mmHg 79%
    06:00 +23°C° 0.4 mm 1 mps 670 mmHg 78%
    07:00 +24°C° 0.4 mm 1 mps 671 mmHg 76%
    08:00 +28°C° 0 mm 1 mps 672 mmHg 63%
    09:00 +30°C° 0 mm 0 mps 672 mmHg 49%
    10:00 +34°C° 0 mm 0 mps 673 mmHg 36%
    11:00 +36°C° 0 mm 1 mps 672 mmHg 33%
    12:00 +37°C° 0 mm 2 mps 671 mmHg 31%
    13:00 +37°C° 0 mm 2 mps 670 mmHg 28%
    14:00 +36°C° 0 mm 2 mps 670 mmHg 30%
    15:00 +36°C° 0 mm 2 mps 669 mmHg 32%
    16:00 +35°C° 0 mm 2 mps 669 mmHg 34%
    17:00 +31°C° 0.3 mm 2 mps 669 mmHg 42%
    18:00 +29°C° 0.3 mm 2 mps 669 mmHg 50%
    19:00 +26°C° 0.3 mm 1 mps 668 mmHg 57%
    20:00 +26°C° 0.1 mm 1 mps 669 mmHg 62%
    21:00 +25°C° 0.1 mm 1 mps 669 mmHg 67%
    22:00 +24°C° 0.1 mm 1 mps 669 mmHg 71%
    23:00 +23°C° 1.5 mm 1 mps 669 mmHg 78%

    Tomorrow, 21 October, Sunday

    Time Temperature Precipitation Wind Pressure Humidity
    00:00 +22°C° 1.5 mm 1 mps 669 mmHg 85%
    01:00 +20°C° 1.5 mm 2 mps 669 mmHg 93%
    02:00 +21°C° 0.1 mm 1 mps 669 mmHg 93%
    03:00 +21°C° 0.1 mm 1 mps 669 mmHg 92%
    04:00 +19°C° 0.1 mm 0 mps 668 mmHg 92%
    05:00 +20°C° 0 mm 0 mps 669 mmHg 89%
    06:00 +21°C° 0 mm 0 mps 670 mmHg 85%
    07:00 +22°C° 0 mm 0 mps 670 mmHg 81%
    08:00 +27°C° 0 mm 1 mps 671 mmHg 66%
    09:00 +30°C° 0 mm 2 mps 671 mmHg 51%
    10:00 +34°C° 0 mm 3 mps 672 mmHg 36%
    11:00 +34°C° 0 mm 3 mps 671 mmHg 35%
    12:00 +34°C° 0 mm 3 mps 670 mmHg 35%
    13:00 +34°C° 0 mm 2 mps 669 mmHg 35%
    14:00 +32°C° 0.1 mm 2 mps 669 mmHg 40%
    15:00 +30°C° 0.1 mm 2 mps 668 mmHg 46%
    16:00 +29°C° 0.1 mm 2 mps 668 mmHg 52%
    17:00 +27°C° 0.5 mm 2 mps 668 mmHg 61%
    18:00 +25°C° 0.5 mm 1 mps 668 mmHg 70%
    19:00 +24°C° 0.5 mm 1 mps 668 mmHg 79%
    20:00 +23°C° 0.9 mm 1 mps 669 mmHg 82%
    21:00 +23°C° 0.9 mm 2 mps 669 mmHg 85%
    22:00 +21°C° 0.9 mm 2 mps 670 mmHg 88%
    23:00 +21°C° 0.2 mm 2 mps 670 mmHg 88%

    Day after tomorrow, 22 October, Monday

    Time Temperature Precipitation Wind Pressure Humidity
    00:00 +21°C° 0.2 mm 2 mps 669 mmHg 88%
    01:00 +21°C° 0.2 mm 2 mps 669 mmHg 89%
    02:00 +21°C° 1 mm 2 mps 669 mmHg 89%
    03:00 +21°C° 1 mm 2 mps 669 mmHg 90%
    04:00 +20°C° 1 mm 2 mps 669 mmHg 91%
    05:00 +21°C° 0.2 mm 2 mps 669 mmHg 88%
    06:00 +23°C° 0.2 mm 2 mps 670 mmHg 84%
    07:00 +23°C° 0.2 mm 1 mps 670 mmHg 81%
    08:00 +26°C° 0.1 mm 2 mps 671 mmHg 69%
    09:00 +29°C° 0.1 mm 2 mps 671 mmHg 57%
    10:00 +31°C° 0.1 mm 3 mps 672 mmHg 45%
    11:00 +31°C° 0.7 mm 3 mps 671 mmHg 48%
    12:00 +30°C° 0.7 mm 3 mps 670 mmHg 50%
    13:00 +30°C° 0.7 mm 2 mps 669 mmHg 53%
    14:00 +30°C° 0 mm 2 mps 669 mmHg 52%
    15:00 +30°C° 0 mm 2 mps 669 mmHg 51%
    16:00 +29°C° 0 mm 2 mps 669 mmHg 51%
    17:00 +28°C° 0 mm 2 mps 669 mmHg 56%
    18:00 +26°C° 0 mm 2 mps 669 mmHg 61%
    19:00 +25°C° 0 mm 3 mps 670 mmHg 65%
    20:00 +24°C° 0.1 mm 2 mps 670 mmHg 71%
    21:00 +23°C° 0.1 mm 2 mps 670 mmHg 77%
    22:00 +22°C° 0.1 mm 1 mps 670 mmHg 83%
    23:00 +22°C° 0.1 mm 1 mps 670 mmHg 85%

    23 October, Tuesday

    Time Temperature Precipitation Wind Pressure Humidity
    00:00 +22°C° 0.1 mm 1 mps 669 mmHg 86%
    01:00 +21°C° 0.1 mm 1 mps 669 mmHg 88%
    02:00 +21°C° 0.1 mm 1 mps 669 mmHg 89%
    03:00 +21°C° 0.1 mm 1 mps 669 mmHg 90%
    04:00 +21°C° 0.1 mm 1 mps 669 mmHg 91%
    05:00 +21°C° 0.1 mm 1 mps 670 mmHg 88%
    06:00 +22°C° 0.1 mm 1 mps 671 mmHg 85%
    07:00 +23°C° 0.1 mm 2 mps 672 mmHg 82%
    08:00 +25°C° 0.3 mm 2 mps 672 mmHg 74%
    09:00 +26°C° 0.3 mm 2 mps 672 mmHg 67%
    10:00 +28°C° 0.3 mm 3 mps 672 mmHg 59%
    11:00 +29°C° 0.2 mm 3 mps 672 mmHg 54%
    12:00 +30°C° 0.2 mm 3 mps 671 mmHg 49%
    13:00 +33°C° 0.2 mm 3 mps 670 mmHg 44%
    14:00 +31°C° 0.4 mm 2 mps 670 mmHg 48%
    15:00 +30°C° 0.4 mm 2 mps 670 mmHg 52%
    16:00 +29°C° 0.4 mm 2 mps 670 mmHg 55%
    17:00 +27°C° 1.9 mm 2 mps 670 mmHg 65%
    18:00 +25°C° 1.9 mm 2 mps 670 mmHg 74%
    19:00 +23°C° 1.9 mm 2 mps 670 mmHg 84%
    20:00 +21°C° 3.3 mm 2 mps 671 mmHg 86%
    21:00 +21°C° 3.3 mm 3 mps 671 mmHg 89%
    22:00 +21°C° 3.3 mm 3 mps 671 mmHg 92%
    23:00 +20°C° 0.4 mm 3 mps 671 mmHg 92%

    24 October, Wednesday

    Time Temperature Precipitation Wind Pressure Humidity
    00:00 +20°C° 0.4 mm 2 mps 670 mmHg 92%
    01:00 +20°C° 0.4 mm 2 mps 670 mmHg 93%
    02:00 +20°C° 0.2 mm 2 mps 670 mmHg 93%
    03:00 +20°C° 0.2 mm 2 mps 670 mmHg 93%
    04:00 +20°C° 0.2 mm 1 mps 670 mmHg 94%
    05:00 +20°C° 0 mm 2 mps 670 mmHg 91%
    06:00 +21°C° 0 mm 2 mps 671 mmHg 88%
    07:00 +21°C° 0 mm 2 mps 671 mmHg 85%
    08:00 +25°C° 0.1 mm 3 mps 672 mmHg 72%
    09:00 +28°C° 0.1 mm 3 mps 672 mmHg 59%
    10:00 +30°C° 0.1 mm 4 mps 672 mmHg 46%
    11:00 +30°C° 0 mm 3 mps 671 mmHg 45%
    12:00 +31°C° 0 mm 3 mps 671 mmHg 45%
    13:00 +31°C° 0 mm 2 mps 670 mmHg 44%
    14:00 +31°C° 0 mm 2 mps 670 mmHg 44%
    15:00 +31°C° 0 mm 2 mps 670 mmHg 45%
    16:00 +31°C° 0 mm 2 mps 670 mmHg 45%
    17:00 +29°C° 0 mm 2 mps 670 mmHg 50%
    18:00 +27°C° 0 mm 1 mps 670 mmHg 55%
    19:00 +26°C° 0 mm 1 mps 670 mmHg 60%
    20:00 +24°C° 0.2 mm 1 mps 670 mmHg 66%
    21:00 +23°C° 0.2 mm 1 mps 670 mmHg 72%
    22:00 +22°C° 0.2 mm 1 mps 670 mmHg 78%
    23:00 +20°C° 1.2 mm 0 mps 670 mmHg 82%

    25 October, Thursday

    Time Temperature Precipitation Wind Pressure Humidity
    00:00 +19°C° 1.2 mm 0 mps 669 mmHg 86%
    01:00 +19°C° 1.2 mm 0 mps 669 mmHg 90%
    02:00 +21°C° 0.7 mm 1 mps 669 mmHg 91%
    03:00 +21°C° 0.7 mm 1 mps 669 mmHg 92%
    04:00 +21°C° 0.7 mm 1 mps 669 mmHg 93%
    05:00 +21°C° 0.2 mm 1 mps 670 mmHg 90%
    06:00 +22°C° 0.2 mm 1 mps 670 mmHg 87%
    07:00 +23°C° 0.2 mm 1 mps 671 mmHg 84%
    08:00 +26°C° 0 mm 2 mps 671 mmHg 70%
    09:00 +28°C° 0 mm 3 mps 671 mmHg 55%
    10:00 +32°C° 0 mm 4 mps 672 mmHg 40%
    11:00 +33°C° 0 mm 3 mps 671 mmHg 38%
    12:00 +34°C° 0 mm 3 mps 670 mmHg 35%
    13:00 +35°C° 0 mm 3 mps 670 mmHg 33%
    14:00 +34°C° 0 mm 3 mps 669 mmHg 35%
    15:00 +34°C° 0 mm 2 mps 669 mmHg 37%
    16:00 +32°C° 0 mm 2 mps 669 mmHg 38%
    17:00 +30°C° 0.1 mm 2 mps 669 mmHg 45%
    18:00 +27°C° 0.1 mm 1 mps 669 mmHg 52%
    19:00 +25°C° 0.1 mm 1 mps 669 mmHg 59%
    20:00 +24°C° 0.2 mm 1 mps 669 mmHg 65%
    21:00 +23°C° 0.2 mm 1 mps 669 mmHg 71%
    22:00 +21°C° 0.2 mm 2 mps 669 mmHg 77%
    23:00 +22°C° 0.6 mm 1 mps 669 mmHg 81%
    Show more